Orbital Elements at Epoch 2459200.5 (2020-Dec-17.0) TDB
Reference: JPL 29 (heliocentric ecliptic J2000)
Element | Value | Uncertainty (1-sigma) | Units |
e | .125388521142527 | 2.9835e-08 | |
a | 3.234063041267 | 1.9193e-08 | au |
q | 2.828548659240828 | 9.7416e-08 | au |
i | 2.035590438272326 | 3.7471e-06 | deg |
node | 60.62718895903103 | 0.00011483 | deg |
peri | 206.6751093466652 | 0.00011609 | deg |
M | 257.4108272034166 | 1.7832e-05 | deg |
tp | 2459805.868997799578 (2022-Aug-14.36899780) | 0.00010612 | TDB |
period | 2124.325923165122 5.82 | 1.8911e-05 5.178e-08 | d yr |
n | .1694655213092824 | 1.5086e-09 | deg/d |
Q | 3.639577423293173 | 2.16e-08 | au |
|
| | Orbit Determination Parameters
Additional Information
|